Location: Arrodets-la-Barthe
(43.0306°N, 0.2829°E)
Time: 11:41:26
(UTC+00:00)

Iridium 4 Rocket - Pass Details

Date: 31 May 2022
Orbit: 585 x 902 km, 86.9° (Epoch: 01 July)

Event Time Altitude Azimuth Distance (km) Brightness Sun altitude
Rises 23:29:11 0° 343° (NNW) 3,072 8.0 -24.6°
Reaches altitude 10° 23:31:47 10° 329° (NNW) 2,204 6.7 -24.7°
Maximum altitude 23:35:35 23° 278° (W) 1,575 5.2 -24.8°
Enters shadow 23:37:03 20° 254° (WSW) 1,714 5.2 -24.8°
